Temp
44 44 44 44 41 41 41 41 42 41 41 40 40 40 39 41 42 42 42 42 41 40 39 37 38 39 40 42 43 42 41 43 45 44 43 43 43 43 43 44 44 45 46
41 44 43 40 39 38 39 40 41 40 41 40 39 38 39 39 40 41 41 41 40 39 39 37 36 37 38 40 41 41 39 41 44 43 43 40 41 42 42 43 43 43 44
40 41 41 38 36 36 37 39 39 39 39 39 39 39 39 39 38 37 37 39 39 38 37 37 36 36 37 37 38 40 40 37 40 42 43 40 38 40 41 41 42 42 43
41 40 39 37 36 36 37 38 38 38 40 37 36 34 33 32 34 35 36 36 37 37 37 36 36 35 36 36 38 41 40 39 36 39 42 44 43 38 37 40 40 41 42
39 38 38 39 37 37 34 35 36 36 36 35 35 33 31 32 33 33 33 34 35 35 35 35 35 34 35 36 37 38 39 40 37 37 36 40 43 43 40 37 38 40 41
37 37 39 38 35 35 34 33 34 33 34 33 33 31 30 30 29 30 29 30 31 32 33 34 34 34 35 35 36 38 37 38 39 37 37 36 37 40 40 38 38 38 40
36 35 35 34 33 33 32 34 32 31 32 32 31 30 30 28 28 28 28 28 28 28 30 31 31 33 34 35 36 37 36 36 38 37 36 37 37 41 41 40 37 36 37
36 34 34 33 32 32 31 31 31 30 30 30 29 30 29 28 28 27 26 26 26 27 29 29 30 32 33 33 35 36 36 36 36 37 36 36 36 37 40 40 38 33 34
35 34 33 32 31 30 30 30 30 29 29 29 28 27 27 27 26 26 25 25 25 28 27 27 28 29 30 32 33 33 34 35 35 36 37 36 36 36 39 41 41 38 33
33 33 32 31 31 31 30 30 29 28 28 28 27 27 26 26 25 24 22 22 23 24 24 25 27 28 28 29 32 32 34 35 34 36 36 36 35 36 37 38 41 41 38
33 33 31 31 31 30 28 27 27 27 27 27 26 25 24 23 23 21 20 20 20 21 22 24 25 26 27 28 30 32 33 33 34 34 34 35 36 34 35 36 38 39 39
33 32 31 31 29 27 26 25 26 25 25 25 23 22 21 21 19 18 17 18 17 19 21 23 24 25 26 27 30 31 31 32 32 33 33 33 35 34 34 35 36 36 37
32 31 31 30 28 26 25 24 24 23 24 22 20 20 19 18 15 13 14 15 15 16 19 21 22 23 24 26 32 32 30 31 32 33 32 33 33 32 33 34 34 35 36
32 30 30 28 27 26 22 21 22 22 21 20 17 16 15 14 12 10 8 9 12 15 17 18 20 21 23 30 30 31 29 31 32 32 33 32 32 31 32 33 33 34 33
30 30 29 27 25 22 20 18 18 19 18 15 11 6 10 9 6 3 3 5 8 11 12 16 18 19 25 30 31 31 29 31 31 32 33 33 32 34 34 33 32 33 32
30 30 30 28 25 22 14 15 9 12 15 7 -1 -0 0 2 1 -1 1 3 5 8 10 12 16 18 24 31 32 32 30 31 30 29 31 33 32 33 35 35 36 34 32
30 29 28 26 25 20 17 7 5 9 4 2 -3 -4 -5 -3 -2 -0 0 4 5 7 8 10 15 16 20 30 31 31 29 29 28 29 30 30 32 32 34 34 35 33 35
29 29 28 25 22 17 11 7 6 1 -1 -2 -3 -4 -5 -4 -1 -1 1 2 4 5 12 12 13 15 19 28 30 29 26 26 27 28 29 28 29 32 34 33 32 32 32
31 30 27 21 15 12 8 5 -1 -5 -2 -3 -3 -4 -3 -3 -5 -0 1 3 7 12 10 15 14 15 16 27 29 28 24 25 24 26 28 27 28 33 36 32 32 32 32
29 23 18 15 12 6 7 6 0 0 -1 -1 -0 -2 -1 -1 -3 -0 3 3 7 15 17 17 15 15 16 24 28 27 24 22 22 23 24 27 29 33 36 32 32 31 30
22 18 16 15 12 7 9 5 3 3 4 6 4 2 2 4 5 7 9 10 11 12 9 14 15 15 16 18 27 27 23 22 21 20 21 24 29 33 35 35 33 32 32
17 16 14 9 6 7 11 7 8 5 6 8 8 6 6 12 12 10 13 13 13 13 12 12 13 16 16 21 24 26 26 26 21 19 21 22 28 32 34 33 34 34 33
15 15 13 9 7 9 13 13 8 8 7 8 5 4 8 13 13 12 12 12 12 12 12 13 12 13 16 17 24 25 25 25 22 22 23 24 28 29 30 33 33 31 31
14 14 12 10 8 10 15 15 10 10 5 4 5 7 8 9 10 14 14 11 9 9 12 12 12 12 14 17 21 21 20 21 20 19 17 22 24 26 26 26 30 29 29
15 13 13 11 10 11 12 10 10 7 5 5 8 10 9 7 8 12 10 13 13 14 9 7 11 12 13 19 25 22 18 19 19 11 8 13 14 16 18 20 22 27 29
14 13 12 11 10 10 8 8 7 6 6 6 7 7 7 6 8 6 6 17 20 21 22 23 20 16 22 25 25 23 19 20 18 -0 4 7 9 10 12 13 16 21 24
MSLP
1028.25 1028.51 1028.71 1028.87 1029.39 1029.60 1029.70 1029.58 1029.42 1029.28 1029.09 1028.97 1028.48 1027.92 1027.73 1027.38 1027.13 1026.99 1026.64 1026.15 1025.87 1025.37 1024.85 1024.07 1023.03 1022.18 1021.37 1020.62 1019.57 1018.56 1017.04 1015.97 1014.97 1014.52 1014.21 1014.22 1014.16 1014.08 1013.91 1014.03 1013.74 1013.78 1013.67
1028.28 1028.55 1028.70 1029.20 1029.71 1029.92 1029.87 1029.89 1029.87 1029.70 1029.58 1029.31 1028.87 1028.62 1028.31 1028.00 1027.63 1027.29 1026.98 1026.61 1026.21 1025.82 1025.21 1024.64 1023.84 1022.88 1021.97 1020.95 1019.78 1018.94 1017.78 1016.99 1015.86 1014.96 1014.48 1014.27 1014.36 1014.27 1014.10 1014.01 1014.13 1014.45 1014.22
1028.00 1028.52 1028.93 1029.45 1029.85 1030.06 1030.18 1030.18 1030.10 1030.09 1030.00 1029.79 1029.29 1028.92 1028.65 1028.43 1028.21 1028.00 1027.55 1027.20 1026.73 1026.28 1025.68 1024.92 1024.11 1023.41 1022.47 1021.56 1020.69 1019.59 1018.74 1018.07 1016.86 1015.96 1015.00 1014.36 1014.48 1014.42 1014.39 1014.31 1014.35 1014.51 1014.37
1027.61 1028.23 1028.76 1029.33 1029.80 1030.15 1030.25 1030.36 1030.39 1030.29 1030.17 1030.23 1029.92 1029.60 1029.68 1029.56 1029.25 1028.80 1028.30 1027.71 1027.21 1026.70 1026.01 1025.17 1024.39 1023.86 1023.05 1022.10 1021.38 1020.44 1019.85 1019.10 1017.98 1016.92 1015.78 1015.00 1014.70 1014.78 1014.74 1014.66 1014.74 1014.81 1014.80
1027.37 1028.27 1028.80 1029.33 1029.89 1030.24 1030.60 1030.59 1030.64 1030.67 1030.71 1030.64 1030.29 1030.15 1030.20 1030.28 1029.83 1029.32 1028.85 1028.17 1027.65 1027.13 1026.30 1025.50 1024.85 1024.18 1023.46 1022.66 1021.85 1021.10 1020.39 1019.55 1019.26 1018.34 1017.06 1015.90 1014.91 1014.83 1014.74 1014.56 1014.74 1015.00 1015.10
1027.17 1028.03 1028.74 1029.46 1030.14 1030.45 1030.62 1030.74 1030.77 1031.01 1031.22 1030.96 1030.72 1030.61 1030.80 1030.73 1030.44 1029.76 1029.52 1028.98 1028.50 1027.73 1026.94 1026.16 1025.30 1024.65 1023.79 1023.04 1022.21 1021.52 1020.92 1020.13 1019.59 1018.84 1017.96 1017.27 1016.41 1015.23 1014.67 1014.67 1014.77 1015.09 1015.19
1026.91 1027.99 1028.75 1029.57 1030.10 1030.44 1030.80 1030.92 1030.96 1031.35 1031.25 1031.19 1030.98 1031.02 1031.06 1031.09 1030.84 1030.47 1030.17 1029.71 1029.15 1028.45 1027.65 1026.97 1026.08 1025.15 1024.39 1023.45 1022.51 1021.78 1021.08 1020.50 1019.72 1019.07 1018.49 1017.75 1016.82 1015.81 1015.27 1014.86 1015.03 1015.49 1015.37
1026.66 1027.67 1028.53 1029.47 1030.07 1030.50 1030.78 1031.01 1031.11 1031.49 1031.53 1031.40 1031.25 1031.21 1031.33 1031.57 1031.29 1030.94 1030.67 1030.36 1030.00 1029.35 1028.47 1027.62 1026.68 1025.63 1024.75 1023.84 1022.87 1022.14 1021.50 1020.99 1020.32 1019.51 1019.01 1018.06 1017.40 1016.59 1015.69 1015.30 1015.02 1015.32 1015.00
1026.39 1027.42 1028.34 1029.29 1030.00 1030.61 1030.95 1031.02 1031.13 1031.57 1031.70 1031.61 1031.45 1031.57 1031.62 1031.75 1031.60 1031.23 1031.02 1030.75 1030.33 1029.62 1028.89 1028.05 1027.04 1026.09 1025.31 1024.38 1023.35 1022.67 1021.99 1021.37 1020.72 1019.87 1019.01 1018.30 1017.57 1016.70 1015.87 1015.18 1015.03 1014.88 1014.99
1026.16 1027.08 1028.05 1029.09 1029.86 1030.34 1030.90 1031.06 1031.29 1031.74 1031.89 1031.84 1031.77 1032.04 1031.93 1031.99 1031.93 1031.58 1031.41 1031.05 1030.67 1030.06 1029.33 1028.30 1027.41 1026.50 1025.71 1024.91 1023.85 1022.98 1022.23 1021.57 1020.89 1020.23 1019.37 1018.77 1018.19 1017.22 1016.50 1015.71 1014.99 1015.01 1014.97
1025.35 1026.69 1027.72 1028.63 1029.36 1030.18 1030.88 1031.21 1031.56 1031.93 1032.09 1032.20 1032.16 1032.37 1032.43 1032.37 1032.29 1032.08 1031.95 1031.57 1031.12 1030.53 1029.73 1028.68 1027.87 1026.98 1026.14 1025.31 1024.49 1023.66 1022.85 1022.03 1021.19 1020.57 1019.85 1019.20 1018.53 1017.66 1016.93 1016.35 1015.55 1015.03 1015.05
1025.05 1026.20 1027.43 1028.33 1029.33 1030.20 1031.01 1031.29 1031.76 1032.18 1032.49 1032.70 1032.47 1032.87 1033.04 1032.89 1032.94 1032.77 1032.38 1032.05 1031.54 1030.91 1030.05 1029.09 1028.21 1027.37 1026.59 1025.75 1024.85 1024.08 1023.39 1022.60 1021.81 1021.06 1020.39 1019.57 1018.79 1018.02 1017.56 1016.82 1016.36 1015.83 1015.36
1024.91 1025.89 1027.10 1028.23 1029.29 1030.39 1031.20 1031.54 1032.09 1032.36 1032.75 1032.97 1032.99 1033.38 1033.60 1033.55 1033.56 1033.55 1033.00 1032.54 1032.03 1031.32 1030.38 1029.41 1028.55 1027.78 1026.95 1025.95 1025.13 1024.53 1023.94 1023.18 1022.49 1021.76 1021.09 1020.28 1019.53 1018.64 1017.74 1016.94 1016.36 1015.67 1015.49
1024.26 1025.52 1026.75 1027.89 1029.14 1030.11 1031.22 1031.83 1032.44 1032.77 1033.08 1033.44 1033.53 1033.99 1034.12 1034.16 1034.19 1033.94 1033.66 1033.16 1032.34 1031.41 1030.75 1029.90 1029.08 1028.29 1027.24 1026.01 1025.31 1024.60 1024.20 1023.55 1023.00 1022.29 1021.63 1020.94 1020.35 1019.52 1018.43 1017.67 1016.91 1016.24 1016.04
1023.92 1024.75 1026.00 1027.37 1028.83 1030.19 1031.23 1032.00 1032.59 1033.17 1033.65 1034.02 1034.25 1034.91 1034.83 1034.66 1034.74 1034.52 1034.08 1033.46 1032.63 1031.75 1031.24 1030.32 1029.50 1028.67 1027.30 1026.19 1025.41 1024.91 1024.43 1023.82 1023.27 1022.76 1022.08 1021.51 1020.88 1020.10 1019.04 1018.31 1017.56 1016.92 1016.32
1022.97 1024.09 1025.38 1026.84 1028.35 1029.72 1031.13 1032.33 1033.29 1033.64 1034.10 1034.56 1034.96 1035.39 1035.40 1035.21 1035.09 1034.85 1034.39 1033.74 1032.83 1031.97 1031.41 1030.69 1030.01 1029.09 1028.04 1026.69 1025.84 1025.17 1024.81 1024.30 1023.83 1023.23 1022.49 1021.84 1021.12 1020.16 1019.45 1018.70 1018.11 1017.56 1016.86
1021.92 1023.14 1024.38 1025.89 1027.49 1029.06 1030.63 1032.23 1033.48 1033.96 1034.68 1035.01 1035.44 1035.80 1035.81 1035.44 1035.34 1034.92 1034.51 1033.81 1032.88 1032.28 1031.64 1030.95 1030.35 1029.61 1028.73 1027.10 1026.30 1025.81 1025.53 1024.97 1024.47 1023.84 1023.17 1022.37 1021.80 1020.89 1019.67 1019.11 1018.45 1018.11 1017.54
1021.32 1022.67 1024.11 1025.69 1027.57 1029.11 1030.65 1032.23 1033.47 1034.44 1035.03 1035.32 1035.74 1036.05 1035.89 1035.68 1035.34 1035.09 1034.55 1033.85 1033.03 1032.30 1031.83 1031.15 1030.62 1029.98 1029.05 1027.48 1026.66 1026.31 1026.14 1025.60 1025.05 1024.45 1023.88 1023.28 1022.31 1021.29 1020.29 1019.65 1018.90 1018.41 1018.09
1019.80 1021.62 1023.34 1025.44 1027.47 1029.19 1030.93 1032.18 1033.87 1034.71 1035.17 1035.62 1035.80 1035.92 1035.81 1035.62 1035.24 1034.79 1034.48 1033.82 1033.23 1032.55 1031.94 1031.44 1031.00 1030.42 1029.74 1028.14 1027.15 1026.83 1026.48 1026.00 1025.63 1025.05 1024.49 1024.05 1022.99 1021.81 1020.68 1020.03 1019.35 1018.93 1018.77
1020.19 1021.87 1024.07 1025.85 1027.74 1029.55 1030.88 1031.94 1033.48 1034.45 1034.71 1035.12 1035.23 1035.45 1035.34 1035.09 1035.00 1034.90 1034.48 1034.10 1033.47 1032.95 1032.35 1031.80 1031.44 1030.94 1030.34 1029.00 1027.82 1027.29 1027.04 1026.43 1025.97 1025.58 1025.02 1024.31 1023.40 1022.09 1021.21 1020.62 1019.87 1019.49 1019.39
1020.73 1022.55 1024.34 1025.77 1027.48 1029.28 1030.50 1031.65 1032.79 1033.71 1033.69 1033.95 1034.53 1034.97 1034.82 1034.92 1034.88 1034.59 1034.26 1034.08 1033.57 1033.25 1032.74 1032.26 1031.85 1031.39 1030.87 1030.02 1028.46 1027.80 1027.50 1026.97 1026.54 1026.12 1025.46 1024.85 1023.87 1022.65 1021.68 1020.94 1020.35 1020.12 1019.82
1021.71 1023.13 1024.40 1026.24 1027.84 1029.02 1029.65 1031.16 1032.19 1032.72 1033.16 1033.72 1034.21 1034.95 1034.74 1034.81 1034.59 1034.50 1034.18 1033.98 1033.66 1033.39 1033.17 1032.67 1032.19 1031.70 1031.13 1030.33 1029.12 1028.29 1027.82 1027.36 1027.08 1026.69 1026.11 1025.44 1024.30 1023.13 1022.16 1021.49 1020.92 1020.57 1020.11
1021.93 1023.20 1024.28 1026.41 1028.07 1028.76 1029.16 1030.35 1031.48 1032.25 1032.72 1033.26 1034.17 1034.81 1034.68 1034.48 1034.49 1034.48 1034.50 1034.23 1033.98 1033.63 1033.39 1033.05 1032.65 1032.07 1031.29 1030.76 1029.51 1028.79 1028.25 1027.85 1027.42 1027.09 1026.42 1025.70 1024.61 1023.69 1022.90 1022.18 1021.70 1021.17 1020.91
1021.80 1023.16 1024.51 1026.12 1027.41 1028.56 1028.94 1029.46 1031.01 1031.77 1032.39 1033.21 1033.87 1034.29 1034.43 1034.26 1034.35 1034.28 1034.32 1034.29 1034.21 1033.89 1033.61 1033.25 1032.86 1032.33 1031.42 1030.50 1029.49 1028.99 1028.82 1028.40 1027.94 1027.86 1027.22 1026.00 1025.25 1024.48 1023.90 1023.23 1022.51 1022.08 1021.74
1021.61 1022.96 1024.10 1025.51 1026.71 1027.93 1028.76 1029.66 1030.45 1031.26 1032.22 1033.01 1033.56 1033.81 1033.99 1034.13 1034.55 1034.31 1034.19 1034.03 1034.05 1033.54 1033.30 1033.17 1032.75 1032.34 1031.49 1030.46 1029.66 1029.38 1029.34 1028.66 1028.42 1028.58 1027.98 1027.10 1026.48 1025.83 1025.22 1024.63 1023.97 1023.39 1022.60
1021.29 1022.72 1024.07 1025.31 1026.42 1027.67 1028.76 1029.57 1030.53 1031.18 1031.90 1032.80 1033.45 1033.82 1033.79 1034.06 1034.18 1034.56 1034.53 1033.86 1033.47 1033.28 1033.02 1032.73 1032.59 1032.60 1031.86 1030.69 1030.17 1030.15 1030.20 1029.37 1029.43 1029.89 1029.56 1028.84 1028.25 1027.69 1027.09 1026.41 1025.51 1024.69 1023.56
Wind_Speed
7 6 6 6 6 6 6 5 6 7 5 4 6 6 7 7 7 7 9 10 10 11 11 10 11 11 11 13 14 10 15 11 3 3 0 1 2 3 3 2 4 5 6
6 6 5 7 5 4 5 6 6 7 6 4 4 3 5 5 5 8 10 11 11 11 11 11 11 11 10 14 14 15 10 8 12 4 3 2 0 1 3 3 4 3 3
9 7 7 7 5 5 4 6 6 7 6 7 4 5 4 6 7 8 9 11 11 11 11 11 10 11 9 10 13 13 16 10 10 14 4 2 2 2 1 2 2 2 3
8 6 7 6 6 3 5 7 6 7 7 7 6 9 6 6 6 7 7 8 10 11 12 12 11 11 9 11 11 11 10 10 11 9 10 9 1 1 2 1 1 1 1
10 8 7 7 6 6 5 6 6 7 6 6 7 6 7 5 5 6 10 10 10 11 13 14 12 11 9 10 12 13 12 8 8 8 8 10 3 3 4 1 1 0 2
10 9 7 8 6 5 6 6 7 6 6 6 7 8 8 8 7 9 8 9 8 9 12 14 12 11 11 11 10 10 12 11 8 9 8 5 4 4 2 2 2 1 1
10 9 9 7 6 6 5 5 6 6 6 6 7 7 7 7 7 8 7 9 9 10 12 14 13 11 11 11 11 10 10 12 9 11 9 8 7 5 4 3 2 2 1
11 10 9 8 7 6 6 6 6 6 6 6 7 6 7 4 4 6 7 6 7 8 12 12 11 13 13 11 11 8 8 10 10 11 9 8 8 7 6 3 2 2 1
13 12 10 8 8 6 6 6 7 5 5 5 5 6 6 7 7 8 8 7 9 10 12 13 13 13 12 12 12 9 10 9 10 10 10 9 8 8 7 7 3 1 1
12 11 10 9 6 7 6 6 7 6 5 5 6 6 6 7 7 8 10 10 10 11 12 12 13 13 12 12 12 10 11 11 9 8 11 10 9 8 7 7 4 3 3
14 12 10 9 8 7 6 6 6 5 5 5 6 7 7 8 8 8 10 10 11 12 11 11 12 12 12 12 11 12 12 13 12 12 12 12 12 8 8 7 6 3 1
14 13 12 11 9 7 6 6 6 5 5 5 6 7 8 8 9 10 11 11 11 11 12 11 11 11 11 11 11 12 13 13 13 13 13 13 11 13 10 7 6 3 2
14 13 12 11 9 7 6 7 5 5 5 5 7 7 8 9 9 9 11 11 10 10 11 11 11 11 11 10 13 13 13 12 11 12 12 12 13 13 11 9 6 4 3
17 14 12 11 10 9 7 6 5 4 5 5 7 6 7 8 8 7 8 8 8 8 10 10 9 10 10 10 11 12 12 13 11 11 12 12 13 14 14 10 8 5 3
17 17 15 12 11 10 7 6 5 4 4 5 6 3 5 5 5 6 6 7 7 7 7 8 9 10 8 9 12 12 11 12 13 12 11 11 14 21 19 10 9 7 4
19 17 16 15 15 12 9 6 4 4 5 4 4 3 4 5 5 6 7 6 6 6 6 7 8 9 9 18 19 16 11 12 11 12 12 12 15 18 23 21 16 11 7
19 20 19 17 15 13 12 8 6 5 4 5 3 3 4 4 5 5 6 6 6 6 6 6 8 8 9 18 19 19 10 10 10 11 11 12 11 15 15 16 15 10 15
18 17 15 14 13 11 9 9 6 5 4 5 4 2 3 4 5 5 6 6 4 4 6 6 7 6 8 19 19 19 9 9 11 11 11 13 15 17 17 12 10 7 7
20 17 15 14 12 13 11 11 7 5 4 5 4 1 0 3 3 4 6 4 4 5 4 6 7 8 9 20 20 15 9 10 10 11 11 12 14 24 24 12 11 6 7
15 17 15 14 14 10 12 12 8 6 6 6 5 4 2 0 2 3 5 4 3 5 6 8 8 8 10 19 20 17 8 10 9 9 10 17 20 24 22 11 9 7 6
16 16 15 16 15 13 12 11 9 8 6 6 5 3 2 1 2 3 2 3 4 5 5 6 7 7 9 11 21 20 8 8 8 8 9 9 25 23 21 18 8 7 4
16 13 15 13 12 12 13 11 10 7 7 6 6 2 1 0 1 2 3 4 5 6 6 6 7 7 8 15 18 21 19 16 8 9 8 10 23 20 19 13 18 15 9
14 12 15 15 10 11 11 12 8 10 8 7 5 2 1 2 1 3 3 3 4 4 5 6 6 7 8 7 16 19 20 17 9 8 15 21 18 17 12 18 18 11 5
15 13 16 15 14 11 11 8 12 10 8 7 6 4 3 2 1 2 2 2 2 2 4 5 5 6 7 7 8 8 9 13 9 12 8 12 12 13 12 9 10 7 7
14 14 15 14 14 12 9 10 11 11 9 7 5 5 4 3 1 1 2 1 2 2 0 3 2 5 7 9 18 18 11 10 13 9 4 6 7 9 9 9 9 8 7
14 14 12 13 14 12 10 10 10 11 10 8 5 3 3 2 3 1 2 5 5 8 8 10 8 2 13 19 21 22 21 20 20 5 5 7 7 8 8 8 9 8 9
Wind_Direction
175 156 151 140 101 59 51 34 38 20 16 358 359 3 359 359 1 4 354 359 359 357 354 351 348 351 346 348 352 350 344 341 302 289 234 258 35 18 46 62 58 34 44
152 162 132 88 88 92 49 36 44 32 15 351 355 2 355 356 353 358 358 355 356 356 356 351 350 347 347 351 351 359 352 332 342 316 273 335 131 81 7 45 67 51 51
161 152 113 112 104 76 48 56 53 41 23 3 0 9 353 0 2 359 351 348 349 347 354 352 355 349 349 354 348 355 358 345 337 336 317 333 354 337 45 55 45 34 46
146 144 131 117 117 105 69 68 58 45 30 13 26 32 12 2 353 348 342 345 348 347 353 354 353 350 346 353 353 346 352 355 350 333 345 321 81 323 319 97 94 358 103
154 147 140 128 131 97 91 80 68 47 27 26 39 40 21 352 342 350 348 350 349 347 354 354 353 349 348 346 352 354 349 354 352 345 340 341 322 252 257 243 112 233 238
153 146 136 129 113 93 88 78 75 50 30 31 36 41 26 358 352 358 353 351 344 342 353 351 350 347 346 348 346 347 352 347 359 350 347 334 330 325 356 351 53 291 241
150 148 142 139 127 108 93 97 78 52 33 33 39 38 23 3 356 359 352 350 345 344 348 345 346 346 342 344 345 349 351 351 343 359 345 340 330 328 326 262 187 248 258
155 153 151 147 138 127 112 102 87 68 42 35 32 32 29 6 356 358 355 351 344 334 340 337 343 346 344 347 348 346 352 349 344 351 350 338 339 327 327 280 144 236 248
157 153 147 148 142 137 135 122 101 79 56 43 33 30 23 9 3 359 358 348 342 338 339 337 343 345 345 345 350 350 347 345 349 341 350 351 339 336 329 323 254 279 261
159 155 148 148 144 145 137 110 99 91 66 47 39 30 21 8 2 358 354 347 339 338 336 340 343 343 344 346 352 351 348 347 352 350 349 352 345 340 337 329 318 314 180
164 159 154 148 148 137 132 112 96 83 58 41 39 32 16 6 4 1 353 348 338 336 336 339 339 341 342 344 350 353 351 348 352 351 351 347 348 347 341 334 345 340 358
160 157 154 152 149 141 136 116 101 82 56 51 47 29 18 10 7 1 355 348 343 339 336 341 341 340 341 337 348 357 353 348 351 352 348 349 348 352 342 335 337 323 332
161 159 156 161 154 142 138 116 101 86 67 52 49 33 17 10 5 355 352 347 338 339 344 347 349 340 335 334 1 1 351 348 348 353 351 347 350 349 346 338 330 341 338
167 164 163 164 154 148 140 126 110 90 82 73 60 34 16 9 357 345 338 330 326 340 343 344 341 338 327 350 350 355 354 354 350 352 358 355 354 348 350 345 338 344 330
172 173 169 163 153 143 139 127 117 108 101 86 70 19 6 2 340 339 332 322 325 339 329 344 349 346 342 354 357 358 354 355 359 358 1 356 354 352 359 354 347 344 339
182 175 168 162 164 160 153 145 142 118 114 99 80 3 4 3 348 335 332 323 328 336 340 348 351 356 356 356 360 6 355 0 357 352 1 359 0 351 358 352 2 12 2
181 177 175 168 167 159 154 155 159 125 117 105 71 27 11 357 341 335 337 326 340 339 335 344 353 351 345 0 3 11 351 358 352 350 1 357 356 350 356 350 353 3 20
180 177 166 161 149 140 135 131 133 125 135 109 91 32 8 349 344 345 337 325 321 336 346 339 344 346 350 360 7 14 357 356 358 351 7 355 350 350 355 347 350 359 12
180 171 162 144 138 140 140 133 128 137 144 127 127 204 24 344 343 355 336 313 336 344 339 357 359 4 355 356 10 17 1 355 358 351 4 354 348 349 358 350 352 18 19
159 151 141 135 137 143 143 137 150 158 159 153 169 183 210 75 338 312 321 299 325 1 5 17 11 2 0 350 9 10 358 349 352 353 349 351 352 351 355 351 347 4 9
145 136 144 151 152 148 146 147 153 183 166 153 152 167 204 236 272 313 318 318 356 358 357 19 9 4 359 343 8 4 4 347 349 348 343 343 345 349 354 360 6 8 356
141 146 141 143 146 152 151 153 170 170 152 146 134 164 135 70 30 8 349 16 15 20 9 20 14 358 352 351 360 5 3 354 350 343 338 337 337 347 358 3 16 17 13
146 149 145 141 151 163 159 158 164 159 151 135 132 148 133 101 21 64 30 31 17 27 17 15 10 353 343 333 350 359 1 353 355 335 339 332 338 349 357 11 19 17 16
152 150 145 152 158 171 167 154 154 158 143 136 146 157 145 103 75 68 59 52 10 356 14 360 6 346 334 334 354 8 5 351 346 358 331 342 358 11 11 358 4 12 11
153 155 155 160 162 166 157 150 159 149 147 138 156 155 142 139 53 62 213 129 291 284 76 285 317 348 344 353 5 11 1 353 5 360 340 4 9 9 11 3 359 359 6
155 157 156 153 157 160 152 154 154 153 147 149 159 166 153 163 138 101 357 1 16 6 12 9 9 318 354 0 9 17 10 10 13 5 6 9 11 12 3 359 355 346 1